GW7317 Weather Reports


Display with metric or nautical units.
time (UTC)temp
F
wind
direction
speed
MPH
gust
MPH
rain 1hr
in
rain 24hr
in
rain mn
in
humidity
%
barometer
mb
20260509235929 86 193 0.0 0.0 0.00 0.00 0.00 68 1008.8
20260509235426 86 193 0.0 0.0 0.00 0.00 0.00 67 1008.5
20260509234922 86 193 0.0 0.0 0.00 0.00 0.00 69 1008.7
20260509234419 86 193 0.0 0.0 0.00 0.00 0.00 65 1008.6
20260509233917 87 193 0.0 0.0 0.00 0.00 0.00 68 1008.5
20260509233414 87 193 0.0 0.0 0.00 0.00 0.00 64 1008.5
20260509232910 87 193 0.0 0.0 0.00 0.00 0.00 63 1008.8
20260509232408 87 193 0.0 0.0 0.00 0.00 0.00 62 1008.6
20260509231903 87 193 0.0 0.0 0.00 0.00 0.00 61 1008.5
20260509231400 87 193 0.0 2.0 0.00 0.00 0.00 60 1008.6
20260509230859 87 193 0.0 1.0 0.00 0.00 0.00 61 1008.6
20260509230355 88 193 0.0 0.0 0.00 0.00 0.00 59 1008.3
20260509225851 88 193 0.0 0.0 0.00 0.00 0.00 57 1008.4
20260509225348 88 193 0.0 0.0 0.00 0.00 0.00 57 1008.3
20260509224844 89 193 0.0 0.0 0.00 0.00 0.00 54 1008.4
20260509224340 89 193 0.0 0.0 0.00 0.00 0.00 53 1008.2
20260509223837 90 193 0.0 1.0 0.00 0.00 0.00 53 1008.2
20260509223333 90 193 0.0 0.0 0.00 0.00 0.00 53 1008.2
20260509222830 90 193 0.0 2.0 0.00 0.00 0.00 52 1008.2
20260509222326 90 212 0.0 2.0 0.00 0.00 0.00 53 1008.3
20260509221821 91 254 1.0 1.0 0.00 0.00 0.00 51 1008.1
20260509221319 90 244 0.0 1.0 0.00 0.00 0.00 52 1008.0
20260509220819 90 213 0.0 1.0 0.00 0.00 0.00 53 1008.1
20260509220315 90 158 0.0 3.0 0.00 0.00 0.00 52 1008.3
20260509215811 91 271 1.0 1.0 0.00 0.00 0.00 53 1008.2
20260509215308 90 270 0.0 2.0 0.00 0.00 0.00 51 1008.2
20260509214805 90 217 0.0 1.0 0.00 0.00 0.00 52 1008.2
20260509214302 90 331 0.0 2.0 0.00 0.00 0.00 54 1008.3
20260509213759 90 190 0.0 1.0 0.00 0.00 0.00 54 1008.2
20260509213254 90 189 2.0 2.0 0.00 0.00 0.00 54 1008.2
20260509212752 90 284 0.0 1.0 0.00 0.00 0.00 57 1008.3
20260509212249 90 284 1.0 2.0 0.00 0.00 0.00 55 1008.3
20260509211745 89 190 0.0 1.0 0.00 0.00 0.00 56 1008.3
20260509211242 89 185 1.0 2.0 0.00 0.00 0.00 56 1008.1
20260509210738 90 202 0.0 1.0 0.00 0.00 0.00 56 1008.4
20260509210236 90 206 1.0 1.0 0.00 0.00 0.00 57 1008.5
20260509205735 89 205 1.0 1.0 0.00 0.00 0.00 56 1008.5
20260509205230 89 149 1.0 2.0 0.00 0.00 0.00 58 1008.7
20260509204726 90 168 1.0 4.0 0.00 0.00 0.00 57 1008.7
20260509204223 90 194 1.0 2.0 0.00 0.00 0.00 59 1008.8
20260509203719 90 295 0.0 1.0 0.00 0.00 0.00 58 1008.8
20260509203217 89 237 1.0 1.0 0.00 0.00 0.00 57 1009.0
20260509202712 89 185 0.0 1.0 0.00 0.00 0.00 57 1009.0
20260509202207 89 296 1.0 2.0 0.00 0.00 0.00 60 1009.0
20260509201703 90 354 3.0 3.0 0.00 0.00 0.00 56 1008.9
20260509201200 90 172 1.0 2.0 0.00 0.00 0.00 58 1009.0
20260509200656 89 219 0.0 1.0 0.00 0.00 0.00 60 1009.1
20260509200151 89 239 0.0 1.0 0.00 0.00 0.00 60 1009.2
20260509195648 89 235 1.0 1.0 0.00 0.00 0.00 60 1009.2
20260509195143 89 228 0.0 1.0 0.00 0.00 0.00 58 1009.6
20260509194643 89 209 0.0 0.0 0.00 0.00 0.00 60 1009.3
20260509194140 89 248 1.0 2.0 0.00 0.00 0.00 63 1009.3
20260509193636 89 178 1.0 1.0 0.00 0.00 0.00 59 1009.3
20260509193131 88 176 0.0 1.0 0.00 0.00 0.00 62 1009.6
20260509192628 89 124 1.0 2.0 0.00 0.00 0.00 59 1009.7
20260509192123 89 359 0.0 1.0 0.00 0.00 0.00 61 1009.9
20260509191623 89 324 0.0 2.0 0.00 0.00 0.00 61 1009.6
20260509191121 89 341 0.0 1.0 0.00 0.00 0.00 59 1009.7
20260509190617 89 228 0.0 1.0 0.00 0.00 0.00 57 1009.9
20260509190114 88 204 1.0 1.0 0.00 0.00 0.00 62 1009.8
20260509185612 88 327 0.0 1.0 0.00 0.00 0.00 61 1009.8
20260509185108 88 325 1.0 1.0 0.00 0.00 0.00 60 1010.0
20260509184606 87 185 0.0 1.0 0.00 0.00 0.00 62 1010.1
20260509184102 88 194 1.0 1.0 0.00 0.00 0.00 62 1010.1
20260509183558 88 185 0.0 1.0 0.00 0.00 0.00 62 1010.2
20260509183054 87 185 1.0 1.0 0.00 0.00 0.00 63 1010.2
20260509182551 87 186 0.0 1.0 0.00 0.00 0.00 62 1010.4
20260509182047 87 196 1.0 1.0 0.00 0.00 0.00 63 1010.3
20260509181546 86 196 0.0 1.0 0.00 0.00 0.00 66 1010.5
20260509181042 87 197 2.0 3.0 0.00 0.00 0.00 65 1010.6
20260509180538 86 222 1.0 2.0 0.00 0.00 0.00 65 1010.7
20260509180036 86 195 1.0 2.0 0.00 0.00 0.00 66 1010.7
20260509175531 85 194 0.0 0.0 0.00 0.00 0.00 68 1010.8
20260509175028 85 143 0.0 2.0 0.00 0.00 0.00 67 1010.9
20260509174525 85 181 0.0 2.0 0.00 0.00 0.00 69 1011.0
20260509174020 85 210 1.0 1.0 0.00 0.00 0.00 68 1011.0
20260509173514 85 185 1.0 1.0 0.00 0.00 0.00 67 1010.8
20260509173011 86 221 1.0 3.0 0.00 0.00 0.00 66 1010.8
20260509172508 88 202 1.0 4.0 0.00 0.00 0.00 65 1010.9
20260509172004 88 236 1.0 2.0 0.00 0.00 0.00 65 1010.7
20260509171500 87 192 1.0 2.0 0.00 0.00 0.00 66 1010.9
20260509170956 86 3 0.0 2.0 0.00 0.00 0.00 67 1010.8
20260509170452 85 204 1.0 1.0 0.00 0.00 0.00 69 1010.8
20260509165948 85 201 0.0 1.0 0.00 0.00 0.00 69 1010.6
20260509165447 84 195 2.0 2.0 0.00 0.00 0.00 72 1010.7
20260509164943 83 171 1.0 1.0 0.00 0.00 0.00 73 1010.6
20260509164439 83 235 1.0 1.0 0.00 0.00 0.00 76 1010.8
20260509163935 82 212 0.0 1.0 0.00 0.00 0.00 77 1010.8
20260509163433 82 213 1.0 2.0 0.00 0.00 0.00 77 1010.9
20260509162931 81 213 0.0 1.0 0.00 0.00 0.00 79 1010.9
20260509162431 81 227 0.0 1.0 0.00 0.00 0.00 79 1011.0
20260509161926 80 226 0.0 0.0 0.00 0.00 0.00 79 1011.0
20260509161422 80 229 0.0 1.0 0.00 0.00 0.00 79 1011.3
20260509160918 80 230 1.0 1.0 0.00 0.00 0.00 79 1011.0
20260509160413 80 205 0.0 1.0 0.00 0.00 0.00 81 1011.2
20260509155909 79 210 0.0 1.0 0.00 0.00 0.00 82 1011.2
20260509155407 79 210 0.0 1.0 0.00 0.00 0.00 81 1011.3
20260509154902 79 210 0.0 0.0 0.00 0.00 0.00 83 1011.3
20260509154359 79 210 0.0 1.0 0.00 0.00 0.00 83 1011.5
20260509153856 79 210 0.0 1.0 0.00 0.00 0.00 84 1011.5
20260509153353 79 210 0.0 1.0 0.00 0.00 0.00 83 1011.5
20260509152850 79 210 0.0 0.0 0.00 0.00 0.00 82 1011.3
20260509152346 79 210 0.0 0.0 0.00 0.00 0.00 83 1011.5
20260509151843 79 210 0.0 0.0 0.00 0.00 0.00 84 1011.3
20260509151339 79 210 0.0 0.0 0.00 0.00 0.00 84 1011.2
20260509150838 79 210 0.0 0.0 0.00 0.00 0.00 84 1011.3
20260509150335 79 210 0.0 0.0 0.00 0.00 0.00 83 1011.1
20260509145832 79 210 0.0 0.0 0.00 0.00 0.00 85 1011.0
20260509145327 78 210 0.0 0.0 0.00 0.00 0.00 85 1011.0
20260509144824 78 210 0.0 0.0 0.00 0.00 0.00 86 1010.9
20260509144321 78 210 0.0 0.0 0.00 0.00 0.00 87 1011.0
20260509143818 77 210 0.0 0.0 0.00 0.00 0.00 88 1010.8
20260509143315 77 210 0.0 1.0 0.00 0.00 0.00 89 1010.8
20260509142811 77 210 0.0 0.0 0.00 0.00 0.00 89 1010.7
20260509142307 77 210 0.0 1.0 0.00 0.00 0.00 90 1010.8
20260509141803 77 210 0.0 0.0 0.00 0.00 0.00 90 1010.7
20260509141300 76 210 0.0 0.0 0.00 0.00 0.00 91 1010.7
20260509140756 76 210 0.0 0.0 0.00 0.00 0.00 91 1010.4
20260509140254 76 210 0.0 0.0 0.00 0.00 0.00 92 1010.1
20260509135752 76 210 0.0 0.0 0.00 0.00 0.00 92 1010.7
20260509135249 76 210 0.0 0.0 0.00 0.00 0.00 92 1010.6
20260509134746 76 210 0.0 0.0 0.00 0.00 0.00 92 1010.7
20260509134243 76 210 0.0 0.0 0.00 0.00 0.00 92 1010.7
20260509133740 76 210 0.0 0.0 0.00 0.00 0.00 92 1010.7
20260509133237 76 210 0.0 0.0 0.00 0.00 0.00 92 1010.9
20260509132736 76 210 0.0 0.0 0.00 0.00 0.00 93 1010.6
20260509132234 75 210 0.0 1.0 0.00 0.00 0.00 93 1010.9
20260509131730 75 210 0.0 0.0 0.00 0.00 0.00 93 1011.2
20260509131227 75 210 0.0 0.0 0.00 0.00 0.00 93 1011.3
20260509130723 75 210 0.0 0.0 0.00 0.00 0.00 94 1011.6
20260509130219 75 210 0.0 0.0 0.00 0.00 0.00 94 1011.6
20260509125715 75 210 0.0 0.0 0.00 0.00 0.00 95 1011.3
20260509125213 74 210 0.0 0.0 0.00 0.00 0.00 95 1011.2
20260509124709 74 210 0.0 0.0 0.00 0.00 0.00 96 1011.4
20260509124206 74 210 0.0 0.0 0.00 0.00 0.00 96 1011.2
20260509123704 74 210 0.0 0.0 0.00 0.00 0.00 96 1011.0
20260509123201 74 210 0.0 0.0 0.00 0.00 0.00 97 1011.0
20260509122656 73 210 0.0 0.0 0.00 0.00 0.00 97 1011.2
20260509122153 73 210 0.0 0.0 0.00 0.00 0.00 97 1011.0
20260509121650 73 210 0.0 0.0 0.00 0.00 0.00 97 1010.9
20260509121148 73 210 0.0 0.0 0.00 0.00 0.00 97 1010.5
20260509120646 73 210 0.0 0.0 0.00 0.00 0.00 97 1010.5
20260509120143 73 210 0.0 0.0 0.00 0.00 0.00 97 1010.5
20260509115641 73 210 0.0 0.0 0.00 0.00 0.00 96 1010.3
20260509115138 73 210 0.0 0.0 0.00 0.00 0.00 96 1010.2
20260509114636 73 210 0.0 0.0 0.00 0.00 0.00 96 1010.4
20260509114135 73 210 0.0 0.0 0.00 0.00 0.00 96 1010.9
20260509113633 73 210 0.0 0.0 0.00 0.00 0.00 96 1010.6
20260509113130 73 210 0.0 0.0 0.00 0.00 0.00 96 1010.7
20260509112626 73 210 0.0 0.0 0.00 0.00 0.00 97 1011.0
20260509112123 73 210 0.0 1.0 0.00 0.00 0.00 97 1010.8
20260509111620 73 210 0.0 0.0 0.00 0.00 0.00 97 1011.0
20260509111117 73 210 0.0 0.0 0.00 0.00 0.00 97 1010.9
20260509110614 73 210 0.0 0.0 0.00 0.00 0.00 97 1010.7
20260509110112 73 210 0.0 0.0 0.00 0.00 0.00 97 1011.0
20260509105610 73 210 0.0 0.0 0.00 0.00 0.00 97 1010.9
20260509105107 73 210 0.0 0.0 0.00 0.00 0.00 97 1010.9
20260509104604 73 210 0.0 0.0 0.00 0.00 0.00 97 1010.8
20260509104100 73 210 0.0 0.0 0.00 0.00 0.00 97 1010.8
20260509103558 73 210 0.0 0.0 0.00 0.00 0.00 97 1010.6
20260509103056 73 210 0.0 0.0 0.00 0.00 0.00 97 1010.6
20260509102553 72 210 0.0 0.0 0.00 0.00 0.00 96 1010.7
20260509102050 73 210 0.0 0.0 0.00 0.00 0.00 96 1010.3
20260509101546 73 210 0.0 0.0 0.00 0.00 0.00 96 1010.3
20260509101043 73 210 0.0 0.0 0.00 0.00 0.00 96 1010.2
20260509100540 73 210 0.0 0.0 0.00 0.00 0.00 96 1009.8
20260509100038 73 210 0.0 0.0 0.00 0.00 0.00 96 1009.8
20260509095534 73 210 0.0 0.0 0.00 0.00 0.00 96 1009.7
20260509095032 73 210 0.0 0.0 0.00 0.00 0.00 96 1009.7
20260509094528 73 210 0.0 0.0 0.00 0.00 0.00 96 1009.8
20260509094025 73 210 0.0 0.0 0.00 0.00 0.00 95 1009.7
20260509093523 73 210 0.0 0.0 0.00 0.00 0.00 95 1009.8
20260509093021 73 210 0.0 0.0 0.00 0.00 0.00 95 1010.3
20260509092519 74 210 0.0 0.0 0.00 0.00 0.00 95 1010.2
20260509092017 74 210 0.0 0.0 0.00 0.00 0.00 95 1010.4
20260509091514 74 210 0.0 0.0 0.00 0.00 0.00 95 1010.2
20260509091010 74 210 0.0 0.0 0.00 0.00 0.00 95 1010.4
20260509090508 74 210 0.0 0.0 0.00 0.00 0.00 95 1010.3
20260509090006 74 210 0.0 0.0 0.00 0.00 0.00 95 1010.3
20260509085502 74 210 0.0 0.0 0.00 0.00 0.00 95 1010.5
20260509084958 74 210 0.0 0.0 0.00 0.00 0.00 95 1010.1
20260509084455 74 210 0.0 0.0 0.00 0.00 0.00 95 1010.5
20260509083953 74 210 0.0 0.0 0.00 0.00 0.00 95 1010.4
20260509083450 74 210 0.0 0.0 0.00 0.00 0.00 95 1010.6
20260509082946 74 210 0.0 0.0 0.00 0.00 0.00 94 1010.7
20260509082444 74 210 0.0 0.0 0.00 0.00 0.00 94 1010.5
20260509081941 74 210 0.0 0.0 0.00 0.00 0.00 94 1010.2
20260509081438 74 210 0.0 0.0 0.00 0.00 0.00 94 1010.2
20260509080935 74 210 0.0 0.0 0.00 0.00 0.00 94 1010.1
20260509080433 74 210 0.0 0.0 0.00 0.00 0.00 94 1010.1
20260509075931 74 210 0.0 0.0 0.00 0.00 0.00 94 1010.3
20260509075427 74 210 0.0 0.0 0.00 0.00 0.00 94 1010.1
20260509074926 74 210 0.0 0.0 0.00 0.00 0.00 94 1010.4
20260509074423 74 210 0.0 0.0 0.00 0.00 0.00 94 1010.4
20260509073919 74 210 0.0 1.0 0.00 0.00 0.00 94 1010.3
20260509073415 74 211 0.0 0.0 0.00 0.00 0.00 94 1010.5
20260509072912 74 211 0.0 0.0 0.00 0.00 0.00 94 1010.4
20260509072409 74 211 0.0 0.0 0.00 0.00 0.00 94 1010.3
20260509071905 74 211 0.0 0.0 0.00 0.00 0.00 94 1010.4
20260509071402 74 211 0.0 0.0 0.00 0.00 0.00 94 1010.4
20260509070900 74 211 0.0 0.0 0.00 0.00 0.00 94 1010.2
20260509070356 74 211 0.0 0.0 0.00 0.00 0.00 94 1010.3
20260509065852 74 211 0.0 0.0 0.00 0.00 0.00 94 1010.2
20260509065349 74 211 0.0 0.0 0.00 0.00 0.00 94 1010.4
20260509064844 74 211 0.0 0.0 0.00 0.00 0.00 94 1010.4
20260509064342 74 211 0.0 0.0 0.00 0.00 0.00 94 1010.6
20260509063840 74 211 0.0 0.0 0.00 0.00 0.00 94 1010.4
20260509063336 74 211 0.0 0.0 0.00 0.00 0.00 94 1010.5
20260509062833 74 211 0.0 0.0 0.00 0.00 0.00 94 1010.7
20260509062330 74 211 0.0 0.0 0.00 0.00 0.00 94 1010.8
20260509061827 74 211 0.0 0.0 0.00 0.00 0.00 94 1010.8
20260509061325 74 211 0.0 0.0 0.00 0.00 0.00 93 1010.8
20260509060822 74 211 0.0 0.0 0.00 0.00 0.00 93 1010.9
20260509060319 74 211 0.0 0.0 0.00 0.00 0.00 93 1011.0
20260509055814 74 211 0.0 0.0 0.00 0.00 0.00 93 1011.1
20260509055310 74 211 0.0 0.0 0.00 0.00 0.00 93 1010.8
20260509054808 74 211 0.0 0.0 0.00 0.00 0.00 93 1010.8
20260509054304 73 211 0.0 0.0 0.00 0.00 0.00 93 1011.0
20260509053802 73 211 0.0 0.0 0.00 0.00 0.00 93 1010.8
20260509053259 73 211 0.0 0.0 0.00 0.00 0.00 94 1011.0
20260509052757 73 211 0.0 0.0 0.00 0.00 0.00 94 1011.0
20260509052254 73 211 0.0 0.0 0.00 0.00 0.00 94 1011.0
20260509051752 73 193 0.0 2.0 0.00 0.00 0.00 94 1010.7
20260509051250 73 116 0.0 0.0 0.00 0.00 0.00 94 1010.7
20260509050746 73 110 2.0 2.0 0.00 0.00 0.00 94 1010.9
20260509050243 73 168 0.0 0.0 0.00 0.00 0.00 94 1010.9
20260509045740 73 167 1.0 1.0 0.00 0.00 0.00 94 1010.9
20260509045237 73 173 0.0 1.0 0.00 0.00 0.00 93 1011.0
20260509044734 73 172 0.0 0.0 0.00 0.00 0.00 93 1011.0
20260509044232 73 157 0.0 1.0 0.00 0.00 0.00 93 1011.0
20260509043727 73 155 0.0 1.0 0.00 0.00 0.00 93 1010.8
20260509043224 73 155 0.0 0.0 0.00 0.00 0.00 93 1011.1
20260509042720 73 155 1.0 1.0 0.00 0.00 0.00 93 1011.2
20260509042217 73 209 0.0 0.0 0.00 0.00 0.00 93 1011.2
20260509041714 73 209 1.0 1.0 0.00 0.00 0.00 93 1010.9
20260509041211 73 207 1.0 1.0 0.00 0.00 0.00 93 1011.0
20260509040709 73 208 0.0 0.0 0.00 0.00 0.00 93 1010.9
20260509040205 73 209 0.0 0.0 0.00 0.00 0.00 93 1010.6
20260509035702 73 209 0.0 1.0 0.00 0.00 0.00 93 1010.6
20260509035159 73 224 1.0 1.0 0.00 0.00 0.00 93 1010.7
20260509034657 73 221 0.0 1.0 0.00 0.00 0.00 93 1010.5
20260509034153 73 250 0.0 0.0 0.00 0.00 0.00 93 1010.8
20260509033651 73 180 0.0 1.0 0.00 0.00 0.00 93 1010.4
20260509033147 73 176 0.0 1.0 0.00 0.00 0.00 93 1010.5
20260509032645 73 176 0.0 0.0 0.00 0.00 0.00 94 1010.7
20260509032141 73 176 0.0 0.0 0.00 0.00 0.00 93 1010.6
20260509031639 73 176 0.0 0.0 0.00 0.00 0.00 93 1010.7
20260509031136 73 176 0.0 0.0 0.00 0.00 0.00 93 1010.6
20260509030635 73 176 0.0 1.0 0.00 0.00 0.00 93 1010.4
20260509030132 73 163 0.0 1.0 0.00 0.00 0.00 93 1010.6
20260509025627 73 103 0.0 1.0 0.00 0.00 0.00 93 1010.5
20260509025123 73 80 0.0 1.0 0.00 0.00 0.00 93 1010.4
20260509024619 73 108 0.0 1.0 0.00 0.00 0.00 93 1010.4
20260509024115 73 108 0.0 1.0 0.00 0.00 0.00 93 1010.2
20260509023614 73 109 0.0 2.0 0.00 0.00 0.00 93 1010.1
20260509023110 73 115 0.0 1.0 0.00 0.00 0.00 92 1010.4
20260509022606 73 116 0.0 1.0 0.00 0.00 0.00 92 1010.4
20260509022104 73 157 0.0 1.0 0.00 0.00 0.00 92 1010.3
20260509021601 73 149 1.0 1.0 0.00 0.00 0.00 92 1010.3
20260509021058 73 267 1.0 1.0 0.00 0.00 0.00 91 1010.1
20260509020557 73 299 1.0 2.0 0.00 0.00 0.00 91 1009.9
20260509020053 73 152 0.0 1.0 0.00 0.00 0.00 91 1009.9
20260509015552 73 190 0.0 2.0 0.00 0.00 0.00 91 1010.0
20260509015049 73 127 0.0 1.0 0.00 0.00 0.00 91 1009.9
20260509014545 74 136 2.0 2.0 0.00 0.00 0.00 90 1010.0
20260509014042 74 56 1.0 1.0 0.00 0.00 0.00 90 1010.2
20260509013539 73 44 0.0 0.0 0.00 0.00 0.00 90 1010.0
20260509013034 73 51 0.0 1.0 0.00 0.00 0.00 90 1009.8
20260509012531 73 52 0.0 1.0 0.00 0.00 0.00 90 1009.7
20260509012028 73 52 0.0 1.0 0.00 0.00 0.00 91 1010.1
20260509011526 73 50 0.0 1.0 0.00 0.00 0.00 91 1009.9
20260509011023 73 45 1.0 2.0 0.00 0.00 0.00 91 1010.0
20260509010521 73 238 1.0 1.0 0.00 0.00 0.00 90 1009.8
20260509010017 74 149 1.0 2.0 0.00 0.00 0.00 90 1009.8
20260509005515 74 158 0.0 2.0 0.00 0.00 0.00 90 1009.7
20260509005015 74 16 0.0 0.0 0.00 0.00 0.00 89 1009.7
20260509004512 74 140 0.0 2.0 0.00 0.00 0.00 89 1009.6
20260509004009 74 112 1.0 3.0 0.00 0.00 0.00 88 1009.8
20260509003508 74 145 0.0 1.0 0.00 0.00 0.00 88 1009.5
20260509003004 74 145 0.0 1.0 0.00 0.00 0.00 88 1009.5
20260509002503 74 156 0.0 1.0 0.00 0.00 0.00 88 1009.5
20260509001959 74 208 0.0 2.0 0.00 0.00 0.00 88 1009.7
20260509001456 74 189 0.0 1.0 0.00 0.00 0.00 88 1009.5
20260509000952 74 198 1.0 1.0 0.00 0.00 0.00 88 1009.7
20260509000451 74 172 0.0 0.0 0.00 0.00 0.00 88 1010.0